This demonstration page uses our WeatherBlox Daily Observations layout. Learn more.

Left ArrowRight Arrow

40.92945, -100.16068

Hourly Observations for June 7, 2016

Temp ( °F °C ) Dew Point ( °F °C ) Humidity (%) Winds ( mph kmh ) Pressure ( in mb ) Visibility ( mi km ) Precip ( " mm )
12:15 am 00:15 Clear 56 13.4 46 8 70 70 ENE 5 7 30.03 1017 10 16 N/A
12:35 am 00:35 Clear 55 12.6 46 8 74 74 NE 7 11 30.03 1017 10 16 N/A
12:55 am 00:55 Clear 54 12.2 47 8.1 76 76 NE 7 11 30.03 1017 10 16 N/A
1:35 am 01:35 Clear 53 11.6 46 7.6 77 77 NNE 6 9 30.03 1017 10 16 N/A
1:55 am 01:55 Clear 52 11 46 7.7 80 80 NE 7 11 30.03 1017 10 16 N/A
2:15 am 02:15 Clear 52 11.2 46 7.7 79 79 NE 7 11 30.03 1017 10 16 N/A
2:35 am 02:35 Clear 53 11.7 46 7.9 78 78 NE 9 15 30.03 1017 10 16 N/A
2:55 am 02:55 Clear 55 12.7 47 8.2 74 74 ENE 7 11 30.03 1017 10 16 N/A
3:15 am 03:15 Clear 54 12.1 47 8.1 77 77 ENE 8 13 30.03 1017 10 16 N/A
3:35 am 03:35 Clear 54 12 47 8.1 77 77 ENE 7 11 30.03 1017 10 16 N/A
3:55 am 03:55 Clear 53 11.9 46 7.8 76 76 Calm 30.03 1017 10 16 N/A
4:15 am 04:15 Clear 53 11.9 46 7.7 76 76 Calm 30.03 1017 10 16 N/A
4:35 am 04:35 Clear 53 11.7 46 7.5 76 76 Calm 30.03 1017 10 16 N/A
4:55 am 04:55 Clear 53 11.4 46 7.8 79 79 Calm 30.03 1017 10 16 N/A
5:15 am 05:15 Clear 52 11.2 45 7.4 78 78 Calm 30.03 1017 10 16 N/A
5:35 am 05:35 Clear 51 10.6 46 7.8 83 83 NNE 3 6 30.03 1017 10 16 N/A
5:55 am 05:55 Clear 49 9.6 46 7.5 87 87 NNE 6 9 30.06 1018 10 16 N/A
6:15 am 06:15 Sunny 49 9.7 46 7.6 87 87 NNE 3 6 30.06 1018 10 16 N/A
6:35 am 06:35 Partly Cloudy 49 9.6 46 7.5 87 87 Calm 30.06 1018 10 16 N/A
6:55 am 06:55 Sunny 50 10.2 47 8.4 89 89 NE 7 11 30.06 1018 10 16 N/A
7:15 am 07:15 Sunny 53 11.7 49 9.6 87 87 Calm 30.03 1017 10 16 N/A
7:35 am 07:35 Partly Cloudy 56 13.2 50 10 81 81 Calm 30.03 1017 10 16 N/A
7:55 am 07:55 Partly Cloudy 59 14.8 49 9.6 71 71 ESE 5 7 30.00 1016 10 16 N/A
8:15 am 08:15 Partly Cloudy 60 15.5 49 9.4 67 67 E 7 11 30.03 1017 10 16 N/A
8:35 am 08:35 Sunny 61 16.1 49 9.7 66 66 ESE 8 13 30.00 1016 10 16 N/A
8:55 am 08:55 Sunny 63 17 49 9.7 62 62 SE 9 15 30.03 1017 10 16 N/A
9:15 am 09:15 Sunny 64 17.5 49 9.7 60 60 SE 8 13 30.00 1016 10 16 N/A
9:35 am 09:35 Sunny 65 18.3 50 9.9 58 58 SE 7 11 30.00 1016 10 16 N/A
9:55 am 09:55 Sunny 66 19.1 51 10.3 57 57 SSE 9 15 30.00 1016 10 16 N/A
10:15 am 10:15 Sunny 67 19.6 50 10.2 55 55 SSE 9 15 29.97 1015 10 16 N/A
10:35 am 10:35 Sunny 68 20.2 51 10.4 53 53 SSE 8 13 29.94 1014 10 16 N/A
10:55 am 10:55 Sunny 69 20.7 50 10 50 50 SSE 6 9 29.94 1014 10 16 N/A
11:15 am 11:15 Sunny 70 21.3 51 10.5 50 50 SSE 7 11 29.94 1014 10 16 N/A
11:35 am 11:35 Sunny 71 21.7 49 9.7 47 47 SE 8 13 29.94 1014 10 16 N/A
11:55 am 11:55 Sunny 72 22.1 50 10 46 46 SE 12 19 29.94 1014 10 16 N/A
12:15 pm 12:15 Sunny 73 22.7 50 9.9 44 44 SSE 7 11 29.94 1014 10 16 N/A
12:35 pm 12:35 Sunny 74 23.2 50 10 43 43 SE 10 17 29.94 1014 10 16 N/A
12:55 pm 12:55 Sunny 74 23.3 49 9.5 42 42 SSE 9 15 29.94 1014 10 16 N/A
1:15 pm 13:15 Sunny 75 24 49 9.7 40 40 SSE 10 17 29.88 1012 10 16 N/A
1:35 pm 13:35 Sunny 76 24.3 49 9.3 39 39 SSE 8 13 29.88 1012 10 16 N/A
1:55 pm 13:55 Sunny 77 25 49 9.7 38 38 SE 9 15 29.88 1012 10 16 N/A
2:15 pm 14:15 Sunny 78 25.4 50 9.9 38 38 SSE 8 13 29.88 1012 10 16 N/A
2:35 pm 14:35 Sunny 78 25.4 49 9.7 37 37 S 12 19 29.85 1011 10 16 N/A
2:55 pm 14:55 Sunny 78 25.8 50 10 37 37 SSE 10 17 29.85 1011 10 16 N/A
3:15 pm 15:15 Sunny 79 26.1 51 10.6 38 38 SSE 10 17 29.85 1011 10 16 N/A
3:35 pm 15:35 Sunny 79 26.3 52 11 38 38 S 9 15 29.85 1011 10 16 N/A
3:55 pm 15:55 Sunny 80 26.6 51 10.8 37 37 SSE 13 20 29.83 1010 10 16 N/A
4:15 pm 16:15 Sunny 80 26.6 52 11.1 38 38 S 8 13 29.83 1010 10 16 N/A
4:35 pm 16:35 Sunny 80 26.7 52 10.9 37 37 S 10 17 29.80 1009 10 16 N/A
4:55 pm 16:55 Sunny 81 27 53 11.4 38 38 SSE 12 19 29.80 1009 10 16 N/A
5:15 pm 17:15 Sunny 80 26.8 52 11.3 38 38 SSE 13 20 29.80 1009 10 16 N/A
5:35 pm 17:35 Sunny 80 26.7 54 12 40 40 S 14 22 29.77 1008 10 16 N/A
5:55 pm 17:55 Sunny 80 26.5 53 11.6 39 39 S 14 22 29.77 1008 10 16 N/A
6:15 pm 18:15 Sunny 80 26.5 53 11.8 40 40 S 14 22 29.77 1008 10 16 N/A
6:35 pm 18:35 Sunny 79 26.1 53 11.7 41 41 S 12 19 29.77 1008 10 16 N/A
6:55 pm 18:55 Sunny 78 25.8 53 11.9 42 42 S 13 20 29.80 1009 10 16 N/A
7:15 pm 19:15 Sunny 78 25.5 53 11.9 43 43 S 16 26 29.80 1009 10 16 N/A
7:35 pm 19:35 Sunny 77 25.1 54 12.4 45 45 S 10 17 29.80 1009 10 16 N/A
7:55 pm 19:55 Sunny 76 24.6 54 12.1 46 46 S 14 22 29.80 1009 10 16 N/A
8:15 pm 20:15 Sunny 74 23.4 55 12.5 50 50 S 10 17 29.80 1009 10 16 N/A
8:35 pm 20:35 Sunny 73 22.8 55 12.5 52 52 SSE 8 13 29.80 1009 10 16 N/A
8:55 pm 20:55 Sunny 72 22 55 12.8 56 56 SSE 8 13 29.83 1010 10 16 N/A
9:15 pm 21:15 Clear 70 21.3 55 13 59 59 SE 7 11 29.83 1010 10 16 N/A
9:35 pm 21:35 Clear 71 21.5 55 13 59 59 SE 7 11 29.83 1010 10 16 N/A
9:55 pm 21:55 Clear 71 21.6 55 12.7 57 57 SE 8 13 29.83 1010 10 16 N/A
10:15 pm 22:15 Clear 69 20.6 55 12.9 61 61 SE 7 11 29.83 1010 10 16 N/A
10:35 pm 22:35 Clear 68 20.2 55 12.8 63 63 SE 6 9 29.85 1011 10 16 N/A
10:55 pm 22:55 Clear 68 20.2 55 13 63 63 SE 6 9 29.85 1011 10 16 N/A
11:15 pm 23:15 Clear 68 19.8 55 12.9 65 65 SE 7 11 29.85 1011 10 16 N/A
11:35 pm 23:35 Clear 67 19.4 55 13 67 67 SE 7 11 29.85 1011 10 16 N/A
11:55 pm 23:55 Clear 67 19.5 55 12.8 65 65 SE 8 13 29.83 1010 10 16 N/A

Powered by AerisWeather